This is the latest recevied weather packets stored in our database for station/object IW1CBG-3. If no packets are shown the sender has not sent any weather packets the latest 1 day(s).
| Time | Temp. | Humidity | Pressure | Rain* | Wind** | Luminosity | Snow |
|---|---|---|---|---|---|---|---|
| 1777978668 | 11.67° C | 89% | 1024.6 hPa | 0 mm | 1.79 m/s, 36° | - | - |
| 1777978068 | 11.11° C | 88% | 1025 hPa | 0 mm | 2.24 m/s, 318° | - | - |
| 1777977468 | 11.11° C | 90% | 1024.9 hPa | 0 mm | 1.79 m/s, 267° | - | - |
| 1777976867 | 11.67° C | 88% | 1024.7 hPa | 0 mm | 1.34 m/s, 292° | - | - |
| 1777976267 | 11.67° C | 87% | 1024.6 hPa | 0 mm | 1.34 m/s, 273° | - | - |
| 1777975668 | 11.67° C | 87% | 1024.7 hPa | 0 mm | 0 m/s | - | - |
| 1777975068 | 11.11° C | 87% | 1024.9 hPa | 0 mm | 1.34 m/s, 169° | - | - |
| 1777974467 | 10.56° C | 88% | 1024.9 hPa | 0 mm | 0 m/s | - | - |
| 1777973868 | 10.56° C | 89% | 1024.8 hPa | 0 mm | 0 m/s | - | - |
| 1777973267 | 10.56° C | 91% | 1025 hPa | 0 mm | 0 m/s | - | - |
| 1777972667 | 11.11° C | 90% | 1024.9 hPa | 0 mm | 0.89 m/s, 156° | - | - |
| 1777972067 | 11.11° C | 89% | 1024.7 hPa | 0 mm | 0 m/s | - | - |
| 1777971468 | 10.56° C | 88% | 1024.9 hPa | 0 mm | 0 m/s | - | - |
| 1777970268 | 10.56° C | 88% | 1024.6 hPa | 0 mm | 1.34 m/s, 291° | - | - |
| 1777969668 | 10.56° C | 90% | 1024.6 hPa | 0 mm | 1.34 m/s, 0° | - | - |
| 1777969067 | 10° C | 92% | 1025 hPa | 0 mm | 2.68 m/s, 316° | - | - |
| 1777968467 | 9.44° C | 96% | 1025 hPa | 0 mm | 1.79 m/s, 293° | - | - |
| 1777967867 | 9.44° C | 97% | 1025.4 hPa | 0 mm | 0 m/s | - | - |
| 1777967267 | 9.44° C | 97% | 1025.1 hPa | 0 mm | 0.89 m/s, 69° | - | - |
| 1777966668 | 9.44° C | 97% | 1025.4 hPa | 0 mm | 0 m/s | - | - |
| 1777966069 | 9.44° C | 97% | 1025.1 hPa | 0 mm | 0 m/s | - | - |
| 1777965469 | 8.89° C | 98% | 1025.1 hPa | 0 mm | 1.34 m/s, 269° | - | - |
| 1777964867 | 9.44° C | 98% | 1025.2 hPa | 0 mm | 0 m/s | - | - |
| 1777964267 | 9.44° C | 99% | 1025 hPa | 0 mm | 0.45 m/s, 355° | - | - |
| 1777963668 | 9.44° C | 99% | 1025 hPa | 0 mm | 1.79 m/s, 284° | - | - |
* Rain latest hour (hover to see other rain measurements)
** Current wind speed in m/s (hover to see current wind gust speed)